Time,TemperatureF,DewpointF,PressureIn,WindDirection,WindDirectionDegrees,WindSpeedMPH,WindSpeedGustMPH,Humidity,HourlyPrecipIn,Conditions,Clouds,dailyrainin,SoftwareType,DateUTC
2013-01-07 00:03:00,32.0,32.0,-100.00,WSW,245,6.0,11.0,97,-99.99,,,-99.99,,2013-01-07 05:03:00,
2013-01-07 00:12:00,32.0,32.0,-100.00,WSW,250,7.0,12.0,97,-99.99,,,-99.99,,2013-01-07 05:12:00,
2013-01-07 00:22:00,32.0,32.0,-100.00,WSW,245,7.0,12.0,97,-99.99,,,-99.99,,2013-01-07 05:22:00,
2013-01-07 00:33:00,32.0,32.0,-100.00,WSW,240,8.0,12.0,97,-99.99,,,-99.99,,2013-01-07 05:33:00,
2013-01-07 00:42:00,32.0,32.0,-100.00,WSW,240,7.0,12.0,97,-99.99,,,-99.99,,2013-01-07 05:42:00,
2013-01-07 00:52:00,32.0,32.0,-100.00,WSW,255,6.0,13.0,97,-99.99,,,-99.99,,2013-01-07 05:52:00,
2013-01-07 01:02:00,32.0,32.0,-100.00,SW,235,6.0,9.0,97,-99.99,,,-99.99,,2013-01-07 06:02:00,
2013-01-07 01:12:00,32.0,31.0,-100.00,West,265,4.0,9.0,97,-99.99,,,-99.99,,2013-01-07 06:12:00,
2013-01-07 01:22:00,32.0,31.0,-100.00,SW,235,6.0,9.0,97,-99.99,,,-99.99,,2013-01-07 06:22:00,
2013-01-07 01:32:00,32.0,31.0,-100.00,WSW,240,7.0,10.0,97,-99.99,,,-99.99,,2013-01-07 06:32:00,
2013-01-07 01:42:00,32.0,31.0,-100.00,WSW,240,8.0,11.0,97,-99.99,,,-99.99,,2013-01-07 06:42:00,
2013-01-07 01:52:00,32.0,31.0,-100.00,WSW,240,8.0,14.0,98,-99.99,,,-99.99,,2013-01-07 06:52:00,
2013-01-07 02:02:00,32.0,32.0,-100.00,WSW,245,10.0,14.0,98,-99.99,,,-99.99,,2013-01-07 07:02:00,
2013-01-07 02:12:00,32.0,32.0,-100.00,WSW,250,8.0,15.0,98,-99.99,,,-99.99,,2013-01-07 07:12:00,
2013-01-07 02:22:00,32.0,32.0,-100.00,WSW,245,11.0,15.0,98,-99.99,,,-99.99,,2013-01-07 07:22:00,
2013-01-07 02:33:00,32.0,32.0,-100.00,SW,235,7.0,14.0,98,-99.99,,,-99.99,,2013-01-07 07:33:00,
2013-01-07 02:42:00,32.0,32.0,-100.00,WSW,245,8.0,16.0,98,-99.99,,,-99.99,,2013-01-07 07:42:00,
2013-01-07 02:52:00,32.0,32.0,-100.00,WSW,250,8.0,11.0,98,-99.99,,,-99.99,,2013-01-07 07:52:00,
2013-01-07 03:03:00,32.0,32.0,-100.00,WSW,250,8.0,11.0,98,-99.99,,,-99.99,,2013-01-07 08:03:00,
2013-01-07 03:12:00,32.0,31.0,-100.00,WSW,240,8.0,12.0,98,-99.99,,,-99.99,,2013-01-07 08:12:00,
2013-01-07 03:22:00,32.0,31.0,-100.00,SW,235,7.0,12.0,98,-99.99,,,-99.99,,2013-01-07 08:22:00,
2013-01-07 03:33:00,32.0,31.0,-100.00,SW,235,8.0,12.0,98,-99.99,,,-99.99,,2013-01-07 08:33:00,
2013-01-07 03:43:00,32.0,31.0,-100.00,WSW,245,7.0,12.0,98,-99.99,,,-99.99,,2013-01-07 08:43:00,
2013-01-07 03:52:00,32.0,31.0,-100.00,WSW,240,7.0,11.0,98,-99.99,,,-99.99,,2013-01-07 08:52:00,
2013-01-07 04:02:00,32.0,32.0,-100.00,SW,235,9.0,12.0,98,-99.99,,,-99.99,,2013-01-07 09:02:00,
2013-01-07 04:12:00,32.0,32.0,-100.00,WSW,245,8.0,11.0,98,-99.99,,,-99.99,,2013-01-07 09:12:00,
2013-01-07 04:22:00,32.0,32.0,-100.00,WSW,245,7.0,12.0,98,-99.99,,,-99.99,,2013-01-07 09:22:00,
2013-01-07 04:32:00,32.0,32.0,-100.00,WSW,240,7.0,10.0,98,-99.99,,,-99.99,,2013-01-07 09:32:00,
2013-01-07 04:42:00,32.0,32.0,-100.00,SW,235,6.0,11.0,98,-99.99,,,-99.99,,2013-01-07 09:42:00,
2013-01-07 04:52:00,32.0,32.0,-100.00,SW,225,5.0,8.0,98,-99.99,,,-99.99,,2013-01-07 09:52:00,
2013-01-07 05:02:00,32.0,32.0,-100.00,WSW,250,6.0,9.0,98,-99.99,,,-99.99,,2013-01-07 10:02:00,
2013-01-07 05:12:00,32.0,32.0,-100.00,SW,230,6.0,11.0,98,-99.99,,,-99.99,,2013-01-07 10:12:00,
2013-01-07 05:22:00,32.0,32.0,-100.00,SW,230,6.0,9.0,98,-99.99,,,-99.99,,2013-01-07 10:22:00,
2013-01-07 05:32:00,32.0,32.0,-100.00,WSW,250,5.0,7.0,98,-99.99,,,-99.99,,2013-01-07 10:32:00,
2013-01-07 05:42:00,32.0,32.0,-100.00,WSW,240,6.0,8.0,98,-99.99,,,-99.99,,2013-01-07 10:42:00,
2013-01-07 05:52:00,33.0,32.0,-100.00,WSW,250,6.0,9.0,98,-99.99,,,-99.99,,2013-01-07 10:52:00,
2013-01-07 06:02:00,33.0,32.0,-100.00,SW,230,7.0,9.0,98,-99.99,,,-99.99,,2013-01-07 11:02:00,
2013-01-07 06:12:00,32.0,32.0,-100.00,WSW,240,6.0,9.0,98,-99.99,,,-99.99,,2013-01-07 11:12:00,
2013-01-07 06:23:00,32.0,32.0,-100.00,SW,235,6.0,9.0,98,-99.99,,,-99.99,,2013-01-07 11:23:00,
2013-01-07 06:33:00,33.0,32.0,-100.00,SW,220,5.0,7.0,98,-99.99,,,-99.99,,2013-01-07 11:33:00,
2013-01-07 06:43:00,33.0,32.0,-100.00,SW,220,4.0,7.0,98,-99.99,,,-99.99,,2013-01-07 11:43:00,
2013-01-07 06:53:00,33.0,32.0,-100.00,SSW,200,5.0,7.0,98,-99.99,,,-99.99,,2013-01-07 11:53:00,
2013-01-07 07:03:00,33.0,32.0,-100.00,SSW,200,5.0,7.0,98,-99.99,,,-99.99,,2013-01-07 12:03:00,
2013-01-07 07:12:00,33.0,32.0,-100.00,SW,220,4.0,9.0,98,-99.99,,,-99.99,,2013-01-07 12:12:00,
2013-01-07 07:22:00,32.0,32.0,-100.00,South,185,4.0,8.0,98,-99.99,,,-99.99,,2013-01-07 12:22:00,
2013-01-07 07:33:00,33.0,32.0,-100.00,SSW,200,4.0,7.0,98,-99.99,,,-99.99,,2013-01-07 12:33:00,
2013-01-07 07:43:00,33.0,32.0,-100.00,SSW,200,4.0,7.0,98,-99.99,,,-99.99,,2013-01-07 12:43:00,
2013-01-07 07:52:00,33.0,32.0,-100.00,SSW,205,6.0,9.0,98,-99.99,,,-99.99,,2013-01-07 12:52:00,
2013-01-07 08:03:00,33.0,32.0,-100.00,SSW,195,4.0,9.0,98,-99.99,,,-99.99,,2013-01-07 13:03:00,
2013-01-07 08:12:00,32.0,32.0,-100.00,South,180,3.0,6.0,98,-99.99,,,-99.99,,2013-01-07 13:12:00,
2013-01-07 08:23:00,32.0,32.0,-100.00,South,180,2.0,6.0,98,-99.99,,,-99.99,,2013-01-07 13:23:00,
2013-01-07 08:33:00,32.0,32.0,-100.00,SSW,210,4.0,9.0,98,-99.99,,,-99.99,,2013-01-07 13:33:00,
2013-01-07 08:42:00,33.0,32.0,-100.00,SSW,195,4.0,7.0,98,-99.99,,,-99.99,,2013-01-07 13:42:00,
2013-01-07 08:52:00,33.0,32.0,-100.00,South,185,6.0,7.0,98,-99.99,,,-99.99,,2013-01-07 13:52:00,
2013-01-07 09:03:00,33.0,32.0,-100.00,South,190,6.0,9.0,98,-99.99,,,-99.99,,2013-01-07 14:03:00,
2013-01-07 09:12:00,33.0,32.0,-100.00,SSW,205,6.0,9.0,98,-99.99,,,-99.99,,2013-01-07 14:12:00,
2013-01-07 09:22:00,33.0,32.0,-100.00,SSW,205,6.0,9.0,98,-99.99,,,-99.99,,2013-01-07 14:22:00,
2013-01-07 09:33:00,33.0,32.0,-100.00,SW,215,7.0,11.0,98,-99.99,,,-99.99,,2013-01-07 14:33:00,
2013-01-07 09:43:00,33.0,33.0,-100.00,SW,220,6.0,9.0,98,-99.99,,,-99.99,,2013-01-07 14:43:00,
2013-01-07 09:53:00,33.0,33.0,-100.00,SSW,195,7.0,10.0,98,-99.99,,,-99.99,,2013-01-07 14:53:00,
2013-01-07 10:03:00,33.0,33.0,-100.00,SSW,205,7.0,12.0,98,-99.99,,,-99.99,,2013-01-07 15:03:00,
2013-01-07 10:12:00,33.0,33.0,-100.00,SW,215,7.0,11.0,98,-99.99,,,-99.99,,2013-01-07 15:12:00,
2013-01-07 10:22:00,34.0,33.0,-100.00,South,190,7.0,9.0,97,-99.99,,,-99.99,,2013-01-07 15:22:00,
2013-01-07 10:33:00,34.0,33.0,-100.00,SSW,205,8.0,11.0,97,-99.99,,,-99.99,,2013-01-07 15:33:00,
2013-01-07 10:43:00,34.0,33.0,-100.00,South,190,8.0,12.0,97,-99.99,,,-99.99,,2013-01-07 15:43:00,
2013-01-07 10:53:00,34.0,33.0,-100.00,South,185,7.0,10.0,97,-99.99,,,-99.99,,2013-01-07 15:53:00,
2013-01-07 11:03:00,34.0,33.0,-100.00,SSW,205,7.0,11.0,96,-99.99,,,-99.99,,2013-01-07 16:03:00,
2013-01-07 11:12:00,35.0,34.0,-100.00,SW,225,6.0,10.0,96,-99.99,,,-99.99,,2013-01-07 16:12:00,
2013-01-07 11:22:00,35.0,34.0,-100.00,SW,230,7.0,11.0,96,-99.99,,,-99.99,,2013-01-07 16:22:00,
2013-01-07 11:33:00,35.0,34.0,-100.00,SSW,195,9.0,11.0,96,-99.99,,,-99.99,,2013-01-07 16:33:00,
2013-01-07 11:43:00,35.0,34.0,-100.00,SSW,200,9.0,14.0,95,-99.99,,,-99.99,,2013-01-07 16:43:00,
2013-01-07 11:53:00,35.0,34.0,-100.00,SW,220,7.0,13.0,95,-99.99,,,-99.99,,2013-01-07 16:53:00,
2013-01-07 12:03:00,35.0,34.0,-100.00,SSW,195,9.0,15.0,94,-99.99,,,-99.99,,2013-01-07 17:03:00,
2013-01-07 12:12:00,35.0,33.0,-100.00,SW,215,12.0,18.0,92,-99.99,,,-99.99,,2013-01-07 17:12:00,
2013-01-07 12:23:00,35.0,33.0,-100.00,SW,225,9.0,16.0,90,-99.99,,,-99.99,,2013-01-07 17:23:00,
2013-01-07 12:33:00,36.0,33.0,-100.00,SSW,200,12.0,15.0,88,-99.99,,,-99.99,,2013-01-07 17:33:00,
2013-01-07 12:42:00,37.0,33.0,-100.00,South,180,8.0,14.0,86,-99.99,,,-99.99,,2013-01-07 17:42:00,
2013-01-07 12:53:00,37.0,33.0,-100.00,SSW,200,9.0,13.0,84,-99.99,,,-99.99,,2013-01-07 17:53:00,
2013-01-07 13:03:00,37.0,33.0,-100.00,SSW,195,9.0,15.0,83,-99.99,,,-99.99,,2013-01-07 18:03:00,
2013-01-07 13:12:00,37.0,32.0,-100.00,South,190,10.0,13.0,81,-99.99,,,-99.99,,2013-01-07 18:12:00,
2013-01-07 13:23:00,37.0,32.0,-100.00,SSW,195,13.0,17.0,81,-99.99,,,-99.99,,2013-01-07 18:23:00,
2013-01-07 13:33:00,37.0,31.0,-100.00,South,190,13.0,17.0,80,-99.99,,,-99.99,,2013-01-07 18:33:00,
2013-01-07 13:42:00,37.0,32.0,-100.00,South,185,11.0,16.0,80,-99.99,,,-99.99,,2013-01-07 18:42:00,
2013-01-07 13:52:00,37.0,31.0,-100.00,South,185,14.0,19.0,79,-99.99,,,-99.99,,2013-01-07 18:52:00,
2013-01-07 14:03:00,37.0,32.0,-100.00,South,190,9.0,16.0,79,-99.99,,,-99.99,,2013-01-07 19:03:00,
2013-01-07 14:12:00,37.0,31.0,-100.00,SSW,195,12.0,20.0,79,-99.99,,,-99.99,,2013-01-07 19:12:00,
2013-01-07 14:23:00,37.0,31.0,-100.00,SSW,200,12.0,16.0,79,-99.99,,,-99.99,,2013-01-07 19:23:00,
2013-01-07 14:33:00,37.0,31.0,-100.00,SSW,195,11.0,16.0,78,-99.99,,,-99.99,,2013-01-07 19:33:00,
2013-01-07 14:43:00,37.0,31.0,-100.00,South,185,11.0,17.0,77,-99.99,,,-99.99,,2013-01-07 19:43:00,
2013-01-07 14:52:00,37.0,31.0,-100.00,SSW,195,12.0,17.0,77,-99.99,,,-99.99,,2013-01-07 19:52:00,
2013-01-07 15:03:00,38.0,31.0,-100.00,South,180,9.0,15.0,77,-99.99,,,-99.99,,2013-01-07 20:03:00,
2013-01-07 15:12:00,37.0,31.0,-100.00,SSW,200,11.0,16.0,77,-99.99,,,-99.99,,2013-01-07 20:12:00,
2013-01-07 15:23:00,37.0,31.0,-100.00,South,185,7.0,16.0,77,-99.99,,,-99.99,,2013-01-07 20:23:00,
2013-01-07 15:33:00,37.0,31.0,-100.00,South,175,6.0,12.0,77,-99.99,,,-99.99,,2013-01-07 20:33:00,
2013-01-07 15:42:00,37.0,31.0,-100.00,South,175,7.0,14.0,77,-99.99,,,-99.99,,2013-01-07 20:42:00,
2013-01-07 15:52:00,37.0,31.0,-100.00,South,185,8.0,13.0,77,-99.99,,,-99.99,,2013-01-07 20:52:00,
2013-01-07 16:03:00,37.0,31.0,-100.00,South,185,7.0,15.0,77,-99.99,,,-99.99,,2013-01-07 21:03:00,
2013-01-07 16:12:00,37.0,30.0,-100.00,South,185,10.0,16.0,77,-99.99,,,-99.99,,2013-01-07 21:12:00,
2013-01-07 16:23:00,37.0,31.0,-100.00,SSW,195,6.0,17.0,77,-99.99,,,-99.99,,2013-01-07 21:23:00,
2013-01-07 16:33:00,37.0,31.0,-100.00,SSW,195,8.0,13.0,77,-99.99,,,-99.99,,2013-01-07 21:33:00,
2013-01-07 16:43:00,37.0,31.0,-100.00,South,180,11.0,14.0,79,-99.99,,,-99.99,,2013-01-07 21:43:00,
2013-01-07 16:52:00,36.0,31.0,-100.00,SSW,195,9.0,19.0,79,-99.99,,,-99.99,,2013-01-07 21:52:00,
2013-01-07 17:03:00,36.0,30.0,-100.00,SSW,195,7.0,14.0,80,-99.99,,,-99.99,,2013-01-07 22:03:00,
2013-01-07 17:12:00,35.0,30.0,-100.00,South,185,11.0,13.0,81,-99.99,,,-99.99,,2013-01-07 22:12:00,
2013-01-07 17:23:00,35.0,30.0,-100.00,SSW,195,8.0,16.0,82,-99.99,,,-99.99,,2013-01-07 22:23:00,
2013-01-07 17:33:00,34.0,30.0,-100.00,South,175,6.0,11.0,83,-99.99,,,-99.99,,2013-01-07 22:33:00,
2013-01-07 17:43:00,34.0,30.0,-100.00,SSE,155,1.0,12.0,83,-99.99,,,-99.99,,2013-01-07 22:43:00,
2013-01-07 17:53:00,34.0,30.0,-100.00,SSE,165,2.0,9.0,85,-99.99,,,-99.99,,2013-01-07 22:53:00,
2013-01-07 18:02:00,33.0,30.0,-100.00,SE,140,2.0,7.0,85,-99.99,,,-99.99,,2013-01-07 23:02:00,
2013-01-07 18:12:00,33.0,29.0,-100.00,SSE,165,3.0,7.0,86,-99.99,,,-99.99,,2013-01-07 23:12:00,
2013-01-07 18:22:00,33.0,29.0,-100.00,South,190,3.0,7.0,87,-99.99,,,-99.99,,2013-01-07 23:22:00,
2013-01-07 18:33:00,33.0,29.0,-100.00,SE,140,4.0,8.0,87,-99.99,,,-99.99,,2013-01-07 23:33:00,
2013-01-07 18:43:00,32.0,29.0,-100.00,South,170,2.0,6.0,88,-99.99,,,-99.99,,2013-01-07 23:43:00,
2013-01-07 18:53:00,32.0,29.0,-100.00,SE,140,3.0,6.0,89,-99.99,,,-99.99,,2013-01-07 23:53:00,
2013-01-07 19:03:00,32.0,29.0,-100.00,SE,130,2.0,6.0,89,-99.99,,,-99.99,,2013-01-08 00:03:00,
2013-01-07 19:12:00,31.0,29.0,-100.00,SE,140,1.0,4.0,89,-99.99,,,-99.99,,2013-01-08 00:12:00,
2013-01-07 19:22:00,31.0,29.0,-100.00,SSE,165,2.0,7.0,90,-99.99,,,-99.99,,2013-01-08 00:22:00,
2013-01-07 19:33:00,31.0,29.0,-100.00,South,170,1.0,7.0,90,-99.99,,,-99.99,,2013-01-08 00:33:00,
2013-01-07 19:42:00,31.0,29.0,-100.00,SE,135,3.0,7.0,91,-99.99,,,-99.99,,2013-01-08 00:42:00,
2013-01-07 19:52:00,31.0,29.0,-100.00,South,170,1.0,6.0,91,-99.99,,,-99.99,,2013-01-08 00:52:00,
2013-01-07 20:03:00,31.0,29.0,-100.00,SSE,160,2.0,9.0,91,-99.99,,,-99.99,,2013-01-08 01:03:00,
2013-01-07 20:12:00,31.0,29.0,-100.00,South,180,2.0,6.0,91,-99.99,,,-99.99,,2013-01-08 01:12:00,
2013-01-07 20:22:00,31.0,29.0,-100.00,SSE,150,1.0,4.0,91,-99.99,,,-99.99,,2013-01-08 01:22:00,
2013-01-07 20:33:00,31.0,29.0,-100.00,NE,50,1.0,6.0,92,-99.99,,,-99.99,,2013-01-08 01:33:00,
2013-01-07 20:42:00,31.0,29.0,-100.00,East,100,1.0,7.0,92,-99.99,,,-99.99,,2013-01-08 01:42:00,
2013-01-07 20:52:00,30.0,29.0,-100.00,East,85,1.0,7.0,92,-99.99,,,-99.99,,2013-01-08 01:52:00,
2013-01-07 21:02:00,30.0,29.0,-100.00,SSE,165,2.0,7.0,92,-99.99,,,-99.99,,2013-01-08 02:02:00,
2013-01-07 21:12:00,30.0,29.0,-100.00,East,90,2.0,7.0,93,-99.99,,,-99.99,,2013-01-08 02:12:00,
2013-01-07 21:22:00,30.0,28.0,-100.00,SE,145,2.0,7.0,93,-99.99,,,-99.99,,2013-01-08 02:22:00,
2013-01-07 21:33:00,30.0,28.0,-100.00,SE,135,2.0,7.0,93,-99.99,,,-99.99,,2013-01-08 02:33:00,
2013-01-07 21:42:00,30.0,28.0,-100.00,ESE,110,2.0,7.0,93,-99.99,,,-99.99,,2013-01-08 02:42:00,
2013-01-07 21:53:00,30.0,28.0,-100.00,East,80,1.0,7.0,93,-99.99,,,-99.99,,2013-01-08 02:53:00,
2013-01-07 22:03:00,30.0,28.0,-100.00,NE,55,2.0,7.0,93,-99.99,,,-99.99,,2013-01-08 03:03:00,
2013-01-07 22:12:00,30.0,28.0,-100.00,NNE,25,1.0,6.0,94,-99.99,,,-99.99,,2013-01-08 03:12:00,
2013-01-07 22:22:00,30.0,28.0,-100.00,South,170,4.0,7.0,94,-99.99,,,-99.99,,2013-01-08 03:22:00,
2013-01-07 22:32:00,30.0,29.0,-100.00,ESE,120,2.0,9.0,94,-99.99,,,-99.99,,2013-01-08 03:32:00,
2013-01-07 22:43:00,30.0,29.0,-100.00,South,190,2.0,9.0,94,-99.99,,,-99.99,,2013-01-08 03:43:00,
2013-01-07 22:52:00,30.0,28.0,-100.00,ENE,70,1.0,7.0,94,-99.99,,,-99.99,,2013-01-08 03:52:00,
2013-01-07 23:02:00,30.0,28.0,-100.00,ESE,120,2.0,9.0,94,-99.99,,,-99.99,,2013-01-08 04:02:00,
2013-01-07 23:12:00,30.0,28.0,-100.00,East,90,1.0,6.0,94,-99.99,,,-99.99,,2013-01-08 04:12:00,
2013-01-07 23:22:00,30.0,28.0,-100.00,East,90,1.0,7.0,94,-99.99,,,-99.99,,2013-01-08 04:22:00,
2013-01-07 23:32:00,29.0,28.0,-100.00,East,90,1.0,6.0,95,-99.99,,,-99.99,,2013-01-08 04:32:00,
2013-01-07 23:42:00,29.0,28.0,-100.00,ENE,70,1.0,4.0,95,-99.99,,,-99.99,,2013-01-08 04:42:00,
2013-01-07 23:52:00,29.0,28.0,-100.00,SE,135,0.0,4.0,95,-99.99,,,-99.99,,2013-01-08 04:52:00,